OneWeb SL0370

operational
NORAD ID: 49296 Int'l Des: 2021-090 Owner: ONEWEBN Country: UK Constellation: oneweb
LEOCIRCULARPOLARONEWEB_TYPE

About OneWeb SL0370

Description loading...

Live Position

Loading 3D Globe...

Upcoming Passes

Altitude History

Altitude vs Time

uPlot chart will show altitude changes over time

Two-Line Element Set

1 49296U 21090T 25352.34106878 .00000024 00000-0 27057-4 0 9997
2 49296 87.9203 310.5076 0001527 77.8803 282.2501 13.20771206205995
Epoch: Dec 18, 2025 • Age: 13 hours

Current Status

Altitude 1190.4 km
Velocity 7.26 km/s
Sub-Earth Point -22.41°S, 90.17°W
Launch Date Oct 14, 2021
Age 4.1 years
Type internet

Technical Details

Classification Payload
Mass 148.00 kg
Dry Mass 140.00 kg
Total Mass 148.00 kg
Length 1.30 m
Diameter 1.00 m
Span 5.00 m
Shape Trapezoid+2 pan
Manufacturer ONEWUS
Bus Type ARROW
Phase Status In Orbit
Owner/State ONEWEBN/UK

Large Constellations

Loading constellations...